Regional Weather Roundup
Issued by NWS Charleston, SC

Current Version | Previous Version | Graphics & Text | Print | Product List | Glossary On
Versions: 1 2 3 4 5 6 7 8 9 10 11 12 13 14 15 16 17 18 19 20 21 22 23 24 25 26 27 28 29 30 31 32 33 34 35 36 37 38 39 40 41 42 43 44 45 46 47 48 49 50
000 ASUS42 KCHS 051812 RWRCHS REGIONAL WEATHER ROUNDUP NATIONAL WEATHER SERVICE CHARLESTON SC 100 PM EST FRI FEB 05 2016 NOTE: "FAIR" INDICATES FEW OR NO CLOUDS BELOW 12,000 FEET WITH NO SIGNIFICANT WEATHER AND/OR OBSTRUCTIONS TO VISIBILITY. NOT ALL STATIONS ARE QUALITY CONTROLLED BY THE NATIONAL WEATHER SERVICE. USE DATA WITH CAUTION...ESPECIALLY DEWPOINT OBSERVATIONS. NOTICE: OBSERVATIONS FOR THE SAVANNAH-HILTON HEAD INTERNATIONAL AIRPORT /KSAV/ HAVE BEEN TEMPORARILY REMOVED DUE TO AN ERRONEOUS TEMPERATURE SENSOR. THE OBSERVATION WILL BE REINTRODUCED ONCE REPAIRS ARE COMPLETE. SCZ027-030-031-034>040-042>050-051900- ...SOUTHEAST SOUTH CAROLINA... CITY SKY/WX TMP DP RH WIND PRES REMARKS N CHARLESTON MOSUNNY 53 28 38 N13 30.31S 6HR MIN TEMP: 45; 6HR MAX TEMP: 53; WATERFRONT PRK N/A 51 33 50 N8 30.16S MOUNT PLEASANT FAIR 52 34 50 N8G16 30.30S JOHNS ISLAND FAIR 54 28 37 NW16 30.30F PINOPOLIS N/A 48 30 49 N10 30.23F MONCKS CORNER FAIR 46 25 42 N8G18 30.31F SUMMERVILLE FAIR 50 32 50 N10G21 30.32F BEAUFORT MCAS SUNNY 54 30 40 N13 30.32S 6HR MIN TEMP: 41; 6HR MAX TEMP: 54; BEAUFORT ARPT FAIR 52 30 43 N6G21 30.31S HAZE HILTON HEAD IS SUNNY 50 32 50 N14G23 30.32F WALTERBORO CLEAR 54 32 43 N8 30.33S ALLENDALE FAIR 52 19 28 N6G18 30.32F ...SOUTHERN MIDLANDS AND PEE DEE... CITY SKY/WX TMP DP RH WIND PRES REMARKS GEORGETOWN NOT AVBL KINGSTREE NOT AVBL ORANGEBURG SUNNY 51 19 28 NE14G21 30.33F 6HR MIN TEMP: 42; 6HR MAX TEMP: 51; BARNWELL FAIR 52 23 32 NE15 30.34F AIKEN FAIR 46 19 34 N15G23 30.37F MANNING FAIR 48 21 34 N13G21 30.33R COLUMBIA SUNNY 51 12 21 N9G20 30.33F 6HR MIN TEMP: 41; 6HR MAX TEMP: 51; SUMTER SUNNY 50 15 25 N14 30.31S 6HR MIN TEMP: 40; 6HR MAX TEMP: 50; FLORENCE SUNNY 49 23 36 N17G24 30.31F 6HR MIN TEMP: 40; 6HR MAX TEMP: 49; 6HR PCP: TRACE; MYRTLE BEACH PTSUNNY 48 28 46 N16 30.32F N MYRTLE BEACH CLOUDY 47 31 53 N9G20 30.29F 6HR MIN TEMP: 41; 6HR MAX TEMP: 47; 6HR PCP: TRACE; $$ GAZ063-065-086>088-099>101-113>116-118-119-134>141-150-051900- ...SOUTHEAST GEORGIA... CITY SKY/WX TMP DP RH WIND PRES REMARKS SAVANNAH ARPT MOSUNNY 54 27 35 N7 30.32F 6HR MIN TEMP: 39; 6HR MAX TEMP: 54; HUNTER AAF SUNNY 53 32 44 N9 30.29F 6HR MIN TEMP: 38; 6HR MAX TEMP: 54; FORT STEWART SUNNY 52 29 40 NW13G20 30.30F 6HR MIN TEMP: 38; 6HR MAX TEMP: 53; STATESBORO SUNNY 55 17 22 N7 30.34S SYLVANIA CLEAR 52 30 42 NE5G18 30.34F CLAXTON FAIR 53 31 44 NW9 30.35S ...CSRA...CENTRAL AND FAR SOUTHEAST GEORGIA... CITY SKY/WX TMP DP RH WIND PRES REMARKS THOMSON SUNNY 50 23 34 NE8 30.41S AUGUSTA-BUSH SUNNY 50 14 23 NE12 30.35F 6HR MIN TEMP: 36; 6HR MAX TEMP: 52; AUGUSTA-DANIEL SUNNY 50 15 24 NE9 30.35F SWAINSBORO FAIR 50 21 32 NE8 30.36F VIDALIA SUNNY 52 25 35 N12 30.35F EASTMAN FAIR 52 20 28 NE8G17 30.40F HAZLEHURST FAIR 52 24 33 N9 30.34F ALMA SUNNY 51 27 39 VRB5 30.34F 6HR MIN TEMP: 36; 6HR MAX TEMP: 51; WAYCROSS SUNNY 54 33 44 N9 30.34S JESUP FAIR 54 32 43 NE7G17 30.33S BAXLEY FAIR 52 28 40 N10 30.34F BRUNSWICK SUNNY 52 32 46 NE7G16 30.32F SAINT SIMONS SUNNY 53 33 46 NE13G20 30.30F 6HR MIN TEMP: 38; 6HR MAX TEMP: 53; $$ SCZ027-028-034-036>038-045-046-048>050-GAZ119-141-051900- ...LAKE AND SUPPLEMENTAL COASTAL OBSERVATIONS... STATION/POSITION TIME TEMP WIND PRES WAVE SWELL AIR SEA DIR/SP/G HT/PER HT/PER/DIR (UTC) (F) (DEG/KT/KT) (MB) (FT/S) (FT/S/D) WINYAH BAY NOT AVBL LAKE MURRAY 1700 46 30/ 5/ 10 1027.4R ACE BASIN NERRS NOT AVBL FORT PULASKI 1700 49 55 360/ 11/ 15 1026.9F SAPELO ISLAND 1700 52 360/ 12 1027.0S $$ ANZ835-935-AMZ111-154-330-350-352-354-370-450-454-472-051900- ...C-MAN AND BUOY OBSERVATIONS... STATION/POSITION TIME TEMP WIND PRES WAVE SWELL AIR SEA DIR/SP/G HT/PER HT/PER/DIR (UTC) (F) (DEG/KT/KT) (MB) (FT/S) (FT/S/D) BUOY 41004 1750 49 68 360/ 21/ 25 1024.8R 7/ 7 BUOY 41008 1750 48 56 20/ 17/ 21 1026.1F 4/ 4 FOLLY BEACH CMAN 1700 51 330/ 6/ 10 1026.2F CAPERS NEARSHORE 1708 49 20/ 12/ 16 1026.1R FRIPP NEARSHORE 1700 50 360/ 12/ 12 1025.4F STATION/POSITION TIME TEMP WIND PRES WAVE SWELL AIR SEA DIR/SP/G HT/PER HT/PER/DIR (UTC) (F) (DEG/KT/KT) (MB) (FT/S) (FT/S/D) 5E ST. MARYS GA 1721 58 N/A 3/ 5 FRYING PAN BUOY 1700 48 66 350/ 21/ 27 1025.0S BUOY 41025 1750 69 340/ 27/ 33 1022.8R 8/ 7 3/300/15 CAPE LOOKOUT NC NOT AVBL BUOY 41002 1750 60 69 330/ 25/ 31 N/A 10/ 8 BUOY 41010 1720 63 74 1021.4F ST AUGUSTINE FL 1800 48 60 360/ 21/ 24 1026.2F $$

USA.gov is the U.S. government's official web portal to all federal, state and local government web resources and services.